Springfield, MO

7:01 AM CST on December 15, 2017 (GMT -0600)
Springfield-Branson Regional

Weather History for KSGF - April, 2014

Change the Weather History Date:

Sunday, April 13, 2014

  Actual Average Record
Temperature  
Mean Temperature 59 °F 55 °F  
Max Temperature 71 °F 67 °F 89 °F (1972)
Min Temperature 46 °F 43 °F 18 °F (1957)
Degree Days  
Heating Degree Days 6 11  
Month to date heating degree days 125 162  
Since 1 July heating degree days 4761 4336  
Cooling Degree Days 0 1  
Month to date cooling degree days 7 6  
Year to date cooling degree days 7 9  
Growing Degree Days 13 (Base 50)    
Moisture  
Dew Point 56 °F    
Average Humidity 80    
Maximum Humidity 93    
Minimum Humidity 66    
Precipitation  
Precipitation 0.39 in 0.13 in 1.81 in (1987)
Month to date precipitation 0.84 1.67  
Year to date precipitation 4.96 10.28  
Snow  
Snow 0.00 in - - ()
Month to date snowfall 0.0  
Since 1 July snowfall 32.2  
Snow Depth 0.00 in    
Sea Level Pressure  
Sea Level Pressure 29.61 in    
Wind  
Wind Speed 16 mph (South)    
Max Wind Speed 33 mph    
Max Gust Speed 43 mph    
Visibility 9 miles    
Events Rain , Thunderstorm    
T = Trace of Precipitation, MM = Missing Value Source: NWS Daily Summary

Daily Weather History Graph

Daily Weather History Graph

Search for Another Location

Airport or City:

Trip Planner

Search our weather history database for the weather conditions in past years. The results will help you decide how hot, cold, wet, or windy it might be!

Date:

Astronomy

Apr. 13, 2014 Rise Set
Actual Time 6:41 AM CDT 7:46 PM CDT
Civil Twilight 6:15 AM CDT 8:13 PM CDT
Nautical Twilight 5:43 AM CDT 8:45 PM CDT
Astronomical Twilight 5:10 AM CDT 9:18 PM CDT
Moon 6:26 PM CDT (4/13) 5:38 AM CDT (4/13)
Length of Visible Light 13h 58m
Length of Day
13h 05m
Waxing Gibbous, 97% of the Moon is Illuminated
Apr 13
Waxing Gibbous
Apr 15
Full
Apr 22
Last Quarter
Apr 29
New
May 6
First Quarter

Hourly Weather History & Observations

Time (CDT) Temp. Dew Point Humidity Pressure Visibility Wind Dir Wind Speed Gust Speed Precip Events Conditions
12:52 AM 66.9 °F 55.0 °F 66% 29.70 in 10.0 mi South 15.0 mph - N/A   Clear
1:52 AM 66.9 °F 55.0 °F 66% 29.67 in 10.0 mi South 19.6 mph - N/A   Clear
2:52 AM 66.0 °F 55.0 °F 68% 29.66 in 10.0 mi South 16.1 mph - N/A   Clear
3:52 AM 66.0 °F 55.9 °F 70% 29.64 in 10.0 mi South 13.8 mph - N/A   Clear
4:52 AM 66.0 °F 55.9 °F 70% 29.62 in 10.0 mi South 15.0 mph - N/A   Clear
5:52 AM 66.9 °F 57.0 °F 70% 29.63 in 10.0 mi South 13.8 mph - N/A   Clear
6:00 AM 66.9 °F 57.0 °F 70% 29.66 in 10.0 mi South 13.8 mph - N/A Thunderstorm Thunderstorm
6:37 AM 66.9 °F 57.0 °F 70% 29.67 in 10.0 mi South 16.1 mph - N/A   Partly Cloudy
6:52 AM 66.9 °F 57.0 °F 70% 29.63 in 10.0 mi South 17.3 mph - N/A   Clear
7:52 AM 66.0 °F 57.9 °F 75% 29.66 in 10.0 mi South 11.5 mph - 0.00 in   Mostly Cloudy
8:52 AM 66.9 °F 57.9 °F 73% 29.66 in 10.0 mi South 17.3 mph - 0.00 in   Scattered Clouds
9:52 AM 69.1 °F 57.9 °F 68% 29.66 in 10.0 mi South 18.4 mph 27.6 mph N/A   Clear
10:52 AM 68.0 °F 57.0 °F 68% 29.69 in 10.0 mi SSW 19.6 mph 33.4 mph N/A   Overcast
11:29 AM 64.0 °F 59.0 °F 84% 29.73 in 7.0 mi SSW 12.7 mph 21.9 mph 0.02 in Rain , Thunderstorm Light Rain
11:52 AM 64.0 °F 60.1 °F 87% 29.70 in 10.0 mi SSE 10.4 mph - 0.04 in Rain Light Rain
12:52 PM 66.0 °F 59.0 °F 78% 29.63 in 10.0 mi SE 17.3 mph - 0.00 in   Mostly Cloudy
1:52 PM 68.0 °F 57.9 °F 70% 29.59 in 10.0 mi South 20.7 mph 29.9 mph N/A   Partly Cloudy
2:52 PM 70.0 °F 57.9 °F 65% 29.57 in 10.0 mi South 28.8 mph 38.0 mph N/A   Scattered Clouds
3:52 PM 68.0 °F 57.9 °F 70% 29.52 in 10.0 mi SSE 21.9 mph 33.4 mph N/A   Partly Cloudy
4:49 PM 66.2 °F 57.2 °F 73% 29.53 in 10.0 mi SSE 27.6 mph 32.2 mph N/A   Overcast
4:52 PM 66.0 °F 57.9 °F 75% 29.51 in 10.0 mi SSE 25.3 mph 34.5 mph N/A   Overcast
5:50 PM 68.0 °F 59.0 °F 73% 29.55 in 10.0 mi South 21.9 mph 29.9 mph N/A   Scattered Clouds
5:52 PM 68.0 °F 59.0 °F 73% 29.52 in 10.0 mi South 18.4 mph 29.9 mph N/A   Scattered Clouds
6:08 PM 68.0 °F 59.0 °F 73% 29.55 in 10.0 mi South 19.6 mph 28.8 mph N/A   Mostly Cloudy
6:32 PM 68.0 °F 59.0 °F 73% 29.54 in 10.0 mi SSE 19.6 mph - N/A   Scattered Clouds
6:52 PM 66.2 °F 59.0 °F 78% 29.55 in 10.0 mi South 15.0 mph 24.2 mph N/A   Scattered Clouds
7:18 PM 60.1 °F 53.1 °F 78% 29.64 in 5.0 mi WNW 21.9 mph 41.4 mph 0.02 in Rain , Thunderstorm Light Rain
7:23 PM 57.9 °F 53.1 °F 84% 29.64 in 3.0 mi WNW 12.7 mph 32.2 mph 0.07 in Rain , Thunderstorm Heavy Thunderstorms and Rain
7:30 PM 57.0 °F 54.0 °F 89% 29.64 in 2.5 mi West 10.4 mph - 0.19 in Rain , Thunderstorm Heavy Thunderstorms and Rain
7:44 PM 57.0 °F 54.0 °F 89% 29.64 in 4.0 mi WSW 5.8 mph - 0.29 in Rain , Thunderstorm Thunderstorms and Rain
7:52 PM 57.0 °F 54.0 °F 89% 29.63 in 9.0 mi SW 6.9 mph - 0.29 in Rain Light Rain
8:52 PM 55.9 °F 54.0 °F 93% 29.58 in 10.0 mi SE 11.5 mph - 0.06 in Rain Light Rain
9:41 PM 57.0 °F 54.0 °F 89% 29.53 in 10.0 mi SE 17.3 mph 27.6 mph 0.00 in Rain , Thunderstorm Light Thunderstorms and Rain
9:52 PM 57.0 °F 53.1 °F 87% 29.52 in 10.0 mi SSE 13.8 mph 26.5 mph 0.00 in Rain Light Rain
10:52 PM 55.9 °F 52.0 °F 87% 29.59 in 10.0 mi SW 8.1 mph - 0.00 in   Clear
11:17 PM 55.9 °F 53.1 °F 90% 29.63 in 10.0 mi SW 8.1 mph - N/A   Mostly Cloudy
11:52 PM 57.0 °F 53.1 °F 87% 29.62 in 10.0 mi SSW 6.9 mph - N/A   Overcast